Master — WCY6528 — position and weather

sailwx.info

Track history (hours):
 
Tides and Currents Weather Stations Pressure Air Temp Water Temp Dewpoint Dewpoint Depression Visibility Wind Speed Wind Dir Waves Ship Positions

Master

Owner: Crowley Marine Services, SEATTLE, WA. More information available from US FCC via Universal Licensing System and Coast Guard Vessel Documentation Center.

Last reported at 2017-Nov-16 13:23 UTC. Time now 2017-Nov-18 15:34 UTC.
Position N 33°44' W 118°17'.

Length 30 m; draft 5.3 m.

Type: Tug. MMSI: 366755010.

Date/timePositionNaut miles runAvg speedWind from/ knotsBaromVisibWave heightAir tempDewpointWater temp
2017-Nov-16 13:23N 33°44' W 118°17'1 2.2
2017-Nov-16 13:00N 33°44' W 118°16'0 0.9
2017-Nov-16 12:30N 33°44' W 118°15'0 0.3
2017-Nov-16 12:00N 33°44' W 118°15'0 0.2
2017-Nov-16 11:30N 33°44' W 118°15'0 0.1
2017-Nov-16 11:00N 33°44' W 118°15'1 0.2
2017-Nov-16 03:47N 33°44' W 118°17'0 0.0
2017-Nov-15 23:09N 33°44' W 118°17'0 0.0
2017-Nov-15 22:56N 33°44' W 118°17'0 0.0
2017-Nov-15 17:38N 33°44' W 118°17'1 5.2
2017-Nov-15 17:30N 33°44' W 118°16'3 5.9
2017-Nov-15 16:56N 33°45' W 118°12'0 0.1
2017-Nov-15 16:27N 33°45' W 118°12'0 0.3
2017-Nov-15 15:01N 33°44' W 118°12'1 0.9
2017-Nov-15 14:02N 33°45' W 118°13'1 7.3
2017-Nov-15 13:57N 33°45' W 118°13'1 1.3
2017-Nov-15 13:20N 33°46' W 118°13'1 2.2
2017-Nov-15 12:59N 33°45' W 118°13'2 4.9
2017-Nov-15 12:30N 33°44' W 118°11'0 0.9
2017-Nov-15 11:59N 33°44' W 118°12'3 1.9
2017-Nov-15 10:26N 33°44' W 118°15'1 0.1
2017-Nov-14 15:18N 33°45' W 118°17'1 0.3
2017-Nov-14 11:25N 33°44' W 118°15'1 3.0
2017-Nov-14 11:00N 33°43' W 118°15'2 0.2
2017-Nov-14 00:57N 33°44' W 118°17'0 0.0
2017-Nov-14 00:30N 33°44' W 118°17'0 0.0
2017-Nov-13 23:58N 33°44' W 118°17'0 0.0
2017-Nov-13 23:30N 33°44' W 118°17'1 1.8
2017-Nov-13 23:00N 33°45' W 118°16'0 0.4
2017-Nov-13 22:30N 33°45' W 118°16'2 3.6
2017-Nov-13 22:00N 33°43' W 118°16'1 0.1
2017-Nov-12 22:31N 33°44' W 118°17'0 0.0
2017-Nov-12 22:30N 33°44' W 118°17'0 0.0
2017-Nov-12 21:55N 33°44' W 118°17'0 0.0
2017-Nov-12 00:44N 33°44' W 118°17'  
2017-Nov-09 12:50N 33°45' W 118°14'2 0.1
2017-Nov-08 10:29N 33°44' W 118°17'0 0.0
2017-Nov-08 06:54N 33°44' W 118°17'3 0.5
2017-Nov-08 00:38N 33°45' W 118°13'0 1.7
2017-Nov-08 00:28N 33°45' W 118°13'1 0.2
2017-Nov-07 20:51N 33°46' W 118°13'1 2.7
2017-Nov-07 20:29N 33°45' W 118°13'2 3.6
2017-Nov-07 19:59N 33°44' W 118°12'  
Track history (hours):
 
Tides and Currents Weather Stations Pressure Air Temp Water Temp Dewpoint Dewpoint Depression Visibility Wind Speed Wind Dir Waves Ship Positions

Master

Owner: Crowley Marine Services, SEATTLE, WA. More information available from US FCC via Universal Licensing System and Coast Guard Vessel Documentation Center.

Last reported at 2017-Nov-16 13:23 UTC. Time now 2017-Nov-18 15:34 UTC.
Position N 33°44' W 118°17'.

Length 30 m; draft 5.3 m.

Type: Tug. MMSI: 366755010.

Date/timePositionNaut miles runAvg speedWind from/ knotsBaromVisibWave heightAir tempDewpointWater temp
2017-Nov-16 13:23N 33°44' W 118°17'1 2.2
2017-Nov-16 13:00N 33°44' W 118°16'0 0.9
2017-Nov-16 12:30N 33°44' W 118°15'0 0.3
2017-Nov-16 12:00N 33°44' W 118°15'0 0.2
2017-Nov-16 11:30N 33°44' W 118°15'0 0.1
2017-Nov-16 11:00N 33°44' W 118°15'1 0.2
2017-Nov-16 03:47N 33°44' W 118°17'0 0.0
2017-Nov-15 23:09N 33°44' W 118°17'0 0.0
2017-Nov-15 22:56N 33°44' W 118°17'0 0.0
2017-Nov-15 17:38N 33°44' W 118°17'1 5.2
2017-Nov-15 17:30N 33°44' W 118°16'3 5.9
2017-Nov-15 16:56N 33°45' W 118°12'0 0.1
2017-Nov-15 16:27N 33°45' W 118°12'0 0.3
2017-Nov-15 15:01N 33°44' W 118°12'1 0.9
2017-Nov-15 14:02N 33°45' W 118°13'1 7.3
2017-Nov-15 13:57N 33°45' W 118°13'1 1.3
2017-Nov-15 13:20N 33°46' W 118°13'1 2.2
2017-Nov-15 12:59N 33°45' W 118°13'2 4.9
2017-Nov-15 12:30N 33°44' W 118°11'0 0.9
2017-Nov-15 11:59N 33°44' W 118°12'3 1.9
2017-Nov-15 10:26N 33°44' W 118°15'1 0.1
2017-Nov-14 15:18N 33°45' W 118°17'1 0.3
2017-Nov-14 11:25N 33°44' W 118°15'1 3.0
2017-Nov-14 11:00N 33°43' W 118°15'2 0.2
2017-Nov-14 00:57N 33°44' W 118°17'0 0.0
2017-Nov-14 00:30N 33°44' W 118°17'0 0.0
2017-Nov-13 23:58N 33°44' W 118°17'0 0.0
2017-Nov-13 23:30N 33°44' W 118°17'1 1.8
2017-Nov-13 23:00N 33°45' W 118°16'0 0.4
2017-Nov-13 22:30N 33°45' W 118°16'2 3.6
2017-Nov-13 22:00N 33°43' W 118°16'1 0.1
2017-Nov-12 22:31N 33°44' W 118°17'0 0.0
2017-Nov-12 22:30N 33°44' W 118°17'0 0.0
2017-Nov-12 21:55N 33°44' W 118°17'0 0.0
2017-Nov-12 00:44N 33°44' W 118°17'  
2017-Nov-09 12:50N 33°45' W 118°14'2 0.1
2017-Nov-08 10:29N 33°44' W 118°17'0 0.0
2017-Nov-08 06:54N 33°44' W 118°17'3 0.5
2017-Nov-08 00:38N 33°45' W 118°13'0 1.7
2017-Nov-08 00:28N 33°45' W 118°13'1 0.2
2017-Nov-07 20:51N 33°46' W 118°13'1 2.7
2017-Nov-07 20:29N 33°45' W 118°13'2 3.6
2017-Nov-07 19:59N 33°44' W 118°12'  

Dump ship's entire track history